GFSFLT2_prec_cloud_003.txt.gz
Cloud_Cover
5 5 5 5 8 81 97 100 95 100 100 100 100 100 100 100 100 100 100 100 100 100 100 100 100 100 100
5 5 4 67 100 94 100 90 88 35 100 100 100 100 100 100 100 100 100 100 100 100 100 95 100 100 100
8 5 74 84 77 43 9 5 6 79 89 100 100 100 100 100 100 100 100 100 100 100 100 100 98 98 100
95 92 56 6 5 5 5 5 85 82 51 100 99 100 100 100 100 100 100 100 100 100 100 100 100 100 100
100 69 9 5 5 18 87 90 79 96 8 63 5 5 7 45 98 100 100 100 100 100 100 100 100 100 100
92 60 5 63 19 100 100 100 92 46 100 100 30 20 5 5 86 100 100 100 100 100 100 100 100 100 100
36 12 93 84 99 96 100 98 100 41 100 98 13 73 5 5 67 100 100 100 100 100 100 100 100 100 100
95 96 100 91 100 100 96 100 80 7 96 97 5 72 47 99 100 100 100 100 100 100 100 100 100 100 100
96 81 7 22 93 100 87 100 100 48 45 100 85 99 99 94 100 100 100 100 100 100 100 100 100 100 100
5 5 5 5 49 96 100 100 100 100 51 100 95 99 90 80 100 100 100 100 100 100 100 100 100 100 100
9 54 88 56 5 81 100 100 100 100 72 100 96 97 100 82 86 92 100 76 98 94 100 100 100 100 100
98 100 76 69 47 65 88 100 100 100 77 100 98 100 100 100 97 98 86 100 100 100 100 100 100 100 100
100 100 100 87 82 100 80 88 100 100 84 92 100 98 100 100 99 67 96 100 100 100 99 100 100 100 100
100 100 100 90 100 100 100 100 100 42 100 97 92 100 100 96 98 90 100 100 100 100 100 100 100 100 100
100 100 98 100 98 100 100 100 100 100 83 100 95 87 92 70 66 100 97 100 100 100 100 100 100 100 100
100 100 100 100 100 95 100 100 100 100 100 95 92 98 92 100 84 100 100 100 100 100 100 100 100 100 100
100 100 100 100 100 100 100 100 100 100 100 100 100 100 100 98 84 87 100 100 100 100 100 100 100 100 100

GFSFLT2_prec_cloud_006.txt.gz
Cloud_Cover
0 5 6 81 95 100 100 98 89 52 91 95 100 100 100 100 100 100 100 100 100 100 100 100 100 100 100
5 5 64 99 100 100 100 100 48 8 65 100 100 100 100 100 100 100 100 100 100 100 100 100 100 100 100
8 7 94 100 100 53 80 72 100 100 100 100 99 100 100 100 100 100 100 100 100 100 100 100 100 100 100
74 89 99 46 94 67 92 93 100 100 29 100 81 100 100 52 78 100 100 100 100 100 100 100 100 100 100
100 89 5 29 60 100 100 100 46 100 11 84 10 5 5 16 81 100 100 100 100 100 100 100 100 100 100
87 77 96 100 99 100 100 90 72 46 100 88 78 15 5 5 40 100 100 100 100 100 100 100 100 100 100
100 100 100 99 99 97 88 100 97 20 98 60 58 31 5 58 25 99 100 100 100 100 100 100 100 100 100
100 99 100 100 100 100 100 100 84 93 100 90 5 36 5 36 76 95 100 100 100 100 100 100 100 100 100
100 100 98 100 100 100 93 100 100 69 74 99 90 59 49 54 74 51 83 100 100 100 100 100 100 100 100
100 77 92 100 100 100 100 100 100 99 60 100 80 99 98 78 18 74 100 97 88 100 100 100 100 100 100
100 100 100 100 90 96 100 100 100 99 18 100 100 90 100 84 96 76 64 89 63 80 100 100 100 100 100
100 99 98 92 88 88 99 91 100 100 65 100 100 100 100 100 97 54 84 91 64 78 100 100 98 100 100
100 96 97 73 76 99 86 98 96 90 74 77 99 99 100 100 100 98 97 100 100 94 100 100 100 100 100
100 100 98 94 85 97 100 100 100 60 96 54 93 100 100 100 100 100 100 99 89 96 100 100 100 100 100
100 100 100 100 100 100 100 100 100 100 90 56 77 100 97 98 98 83 76 69 100 100 100 100 100 100 100
100 100 100 100 100 87 100 100 100 100 100 86 90 100 100 100 98 100 98 97 100 100 100 100 96 96 100
100 100 100 99 100 100 100 100 100 100 100 100 100 100 100 93 65 81 100 100 100 100 100 100 100 100 100

GFSFLT2_prec_cloud_009.txt.gz
Cloud_Cover
0 3 3 5 5 46 5 5 4 27 89 93 100 100 100 100 100 100 100 100 100 100 100 100 100 100 100
5 5 5 5 72 93 19 5 5 6 100 100 100 100 100 100 100 100 100 100 100 100 100 100 100 100 100
5 5 5 94 75 20 5 5 5 6 29 55 98 65 100 100 100 100 100 100 100 100 100 100 100 100 100
5 5 86 88 5 5 18 5 5 5 4 12 84 52 85 59 98 100 100 100 100 100 100 100 100 100 100
94 97 8 5 39 17 82 74 5 75 2 12 5 2 5 5 5 87 100 100 100 100 100 100 100 100 100
95 79 12 5 81 100 100 100 84 31 60 10 6 5 5 5 25 100 100 99 100 100 100 100 100 100 100
100 99 32 5 95 95 96 100 87 6 12 88 5 5 5 5 18 76 92 100 100 100 100 100 100 100 100
99 16 45 92 100 100 100 30 7 5 99 99 5 5 5 5 6 80 100 100 94 97 100 100 100 100 100
77 96 100 100 100 100 8 100 90 97 47 95 16 21 26 5 39 98 12 94 5 6 59 100 100 100 100
6 6 24 5 97 100 94 100 100 100 26 97 94 99 93 97 8 100 6 5 5 5 72 81 100 100 100
8 5 5 10 78 5 97 100 100 99 65 100 100 99 100 96 100 100 60 5 5 13 96 100 100 100 100
63 9 84 88 92 65 7 77 100 100 94 100 100 100 100 97 100 85 50 5 83 35 100 96 100 100 100
100 81 77 26 5 60 93 100 97 99 85 95 100 100 100 100 100 81 100 92 99 99 100 100 99 100 100
86 63 71 90 98 100 100 96 100 48 99 100 99 100 100 97 100 100 100 100 93 85 100 100 100 100 100
100 100 100 100 100 100 100 100 100 100 96 82 98 87 98 95 99 59 98 99 72 80 100 98 100 100 100
100 100 100 100 100 98 100 100 100 100 100 92 96 97 88 100 100 100 86 12 82 88 100 100 95 88 100
100 100 100 100 100 100 100 100 100 100 98 100 100 100 100 100 79 100 100 84 97 100 99 100 100 100 100

GFSFLT2_prec_cloud_015.txt.gz
Cloud_Cover
0 0 0 0 0 0 0 3 0 1 5 9 94 100 100 100 100 100 100 100 100 100 100 100 100 100 100
4 5 0 0 0 5 5 0 0 0 5 5 20 97 97 100 100 100 100 100 100 100 100 100 100 100 100
5 5 5 5 13 5 5 0 2 0 2 5 5 19 58 64 94 100 100 100 100 100 100 100 100 100 100
9 5 9 22 9 5 5 5 3 2 5 5 53 5 5 5 5 7 47 100 100 100 100 100 100 100 100
5 67 96 5 5 5 5 5 5 5 53 5 5 5 2 4 5 5 86 100 100 100 100 100 100 100 100
82 92 9 5 5 5 5 81 95 30 5 51 5 5 5 5 6 81 87 100 100 100 100 100 100 100 100
16 5 44 5 11 67 100 100 93 51 46 99 5 5 5 5 5 5 94 93 99 100 100 100 100 100 100
5 5 38 84 100 100 96 75 5 5 5 99 8 5 5 5 5 5 5 21 98 100 100 100 88 89 100
5 83 89 44 79 100 11 91 71 32 5 81 10 5 62 5 2 2 5 44 5 60 100 95 100 100 100
6 4 0 1 5 5 25 100 100 100 21 89 71 94 100 5 5 5 5 5 5 27 89 100 99 100 100
3 0 2 5 5 5 5 100 100 100 19 100 99 98 100 82 69 5 5 5 5 5 5 32 65 100 100
4 5 5 5 5 5 6 24 41 88 69 100 99 98 100 97 99 9 5 5 20 5 12 5 33 77 92
28 5 30 5 5 80 5 33 29 95 56 66 98 98 100 100 100 88 89 78 80 28 66 99 100 99 99
80 90 92 86 50 69 100 100 100 34 100 100 96 100 100 100 100 98 97 99 62 82 96 88 99 100 100
100 100 99 100 98 84 100 100 100 99 75 86 100 100 100 100 100 77 91 95 92 86 99 100 99 70 87
100 100 99 100 100 93 99 100 100 100 100 71 83 95 100 100 100 93 72 88 70 73 92 100 100 100 100
100 100 100 100 100 100 100 100 100 100 94 99 100 100 100 100 100 100 100 100 100 100 100 100 100 100 100

GFSFLT2_prec_cloud_018.txt.gz
Cloud_Cover
0 4 5 6 26 5 5 5 4 4 5 6 86 100 100 100 97 100 100 100 100 100 100 100 100 98 100
5 5 5 5 5 5 4 5 5 1 5 18 8 59 96 100 100 100 100 100 100 100 100 100 100 100 100
5 5 19 13 5 5 5 4 2 0 2 5 5 8 75 95 91 80 79 88 99 100 100 100 100 100 100
41 98 57 5 5 5 5 5 2 1 5 5 5 5 5 5 5 5 5 53 99 100 100 100 100 100 100
91 12 21 6 5 5 5 5 5 5 5 5 5 5 5 5 5 5 5 98 99 100 100 100 100 99 100
98 80 7 5 5 5 5 87 96 11 5 5 5 5 5 5 5 50 91 100 100 100 100 100 100 100 100
85 5 5 5 7 30 88 100 97 11 5 5 5 5 5 5 4 5 5 99 98 99 100 100 100 100 100
5 5 16 73 99 100 62 54 5 5 5 95 5 5 5 4 5 5 5 5 88 97 100 100 100 100 100
5 30 59 70 28 91 12 72 96 91 10 77 5 5 5 10 5 8 5 5 36 19 97 100 100 100 100
5 4 0 0 4 5 5 100 100 96 5 78 67 48 94 21 12 99 75 5 5 84 99 100 100 100 100
2 0 0 4 5 5 5 85 100 100 29 100 100 98 100 90 63 5 5 5 5 5 5 62 92 100 100
4 5 5 5 5 5 5 20 32 88 51 100 99 96 100 96 99 5 5 5 5 5 5 6 32 40 98
52 5 18 5 5 70 6 5 65 98 100 100 100 98 100 100 99 92 95 19 5 43 5 5 6 12 92
16 78 99 89 86 81 100 100 100 47 99 100 99 100 100 100 100 83 30 99 44 12 9 39 54 79 86
96 99 98 100 100 92 100 100 100 98 76 44 100 100 96 100 100 99 89 98 45 88 98 94 54 85 76
100 100 100 100 100 100 100 100 100 100 100 56 84 100 100 100 100 92 69 91 86 91 100 100 100 89 79
100 100 100 100 100 100 100 100 100 100 86 86 100 100 100 100 100 100 100 100 100 100 100 100 100 98 73

GFSFLT2_prec_cloud_021.txt.gz
Cloud_Cover
5 5 5 5 5 5 5 4 5 2 5 5 76 91 100 99 100 100 100 100 100 100 100 100 100 100 100
5 5 5 5 5 5 4 1 5 5 5 7 54 24 100 100 100 100 100 100 100 100 100 100 100 100 100
5 5 5 5 5 5 5 8 5 4 4 5 5 50 97 66 87 70 58 52 59 68 91 98 100 100 100
5 5 5 5 5 7 9 5 5 5 5 5 5 5 5 5 5 5 5 5 8 85 99 100 100 100 100
88 63 16 5 5 5 5 5 33 5 5 5 5 5 3 4 3 3 5 6 96 94 100 100 100 100 100
77 75 50 5 5 5 30 100 96 10 5 5 5 5 2 2 4 5 5 36 98 100 100 100 100 100 100
92 21 33 5 10 80 81 99 100 26 5 5 5 5 0 0 1 5 5 31 90 97 100 100 100 100 100
5 5 5 70 100 100 98 42 5 5 5 77 5 5 3 5 4 5 5 5 5 62 100 100 100 100 100
5 12 31 67 33 6 5 46 70 34 5 86 11 5 5 5 0 5 6 5 6 13 76 99 100 100 100
5 5 3 0 4 5 5 54 100 94 5 90 21 90 77 5 5 8 30 16 5 5 66 99 98 100 100
5 0 0 4 5 5 5 57 100 100 7 100 84 98 100 83 24 5 5 32 10 5 5 41 98 100 100
4 5 5 5 5 5 5 6 46 94 34 94 98 97 100 98 98 5 15 5 5 5 5 6 66 49 82
53 5 5 5 5 5 5 5 54 80 72 100 93 100 100 100 99 93 99 93 97 97 87 26 5 5 32
5 24 61 80 28 41 96 98 100 17 5 16 77 89 100 100 100 90 77 100 94 88 100 67 47 95 96
82 99 98 95 86 60 96 100 100 98 55 5 17 73 84 100 100 99 100 79 5 32 75 86 87 90 66
100 100 100 100 100 99 100 100 100 100 100 22 88 100 100 100 100 99 85 85 52 96 89 100 96 100 82
100 100 100 100 100 100 100 100 100 99 61 54 100 100 100 100 100 100 100 100 100 100 98 100 96 100 92

GFSFLT2_prec_cloud_024.txt.gz
Cloud_Cover
64 5 48 6 5 5 4 3 2 3 5 5 34 88 99 95 96 94 99 99 100 100 100 100 100 100 100
6 5 5 47 5 5 5 5 5 0 5 5 5 6 7 93 98 94 100 100 100 100 100 100 100 100 100
51 26 24 50 5 4 5 5 4 0 2 5 5 5 5 29 59 46 34 49 64 62 75 36 79 98 100
60 88 29 5 5 6 5 5 5 4 3 5 5 5 5 5 5 5 5 5 5 5 84 95 99 100 100
99 64 35 5 5 5 5 5 5 5 5 5 5 5 4 5 3 3 5 5 5 26 98 100 100 100 100
100 71 13 29 5 5 5 75 89 5 5 5 5 5 4 0 0 5 5 5 15 91 86 100 100 100 100
75 19 88 68 13 83 28 89 86 42 5 81 5 5 0 0 0 5 5 5 5 5 98 99 100 100 100
10 48 74 99 100 100 94 58 31 5 5 94 5 5 0 0 3 5 5 5 5 5 99 100 100 100 100
22 21 15 42 19 5 5 55 94 44 5 79 5 5 5 5 0 0 5 44 7 6 39 99 98 100 100
5 5 3 0 2 5 22 88 100 94 5 84 6 36 71 5 5 5 0 4 5 5 49 96 100 100 100
5 0 0 2 5 5 5 74 100 100 5 100 97 94 100 90 9 5 5 5 5 5 5 26 87 98 100
4 5 5 5 5 5 5 6 60 93 40 99 99 92 100 88 92 5 5 5 5 5 8 29 45 10 67
5 5 5 5 5 5 5 5 14 47 60 100 100 92 100 100 97 71 95 65 10 5 5 5 37 53 44
7 12 10 50 33 6 85 78 99 13 5 29 91 100 99 98 100 99 62 99 12 5 32 28 43 99 88
73 99 95 81 72 25 77 99 100 92 40 5 12 57 87 95 100 92 99 90 94 40 85 98 99 87 88
100 100 100 100 100 91 98 100 100 100 99 11 52 95 96 100 100 94 100 92 100 100 100 100 100 98 75
100 100 100 100 99 93 100 100 100 100 80 58 100 100 100 100 100 100 100 100 100 100 95 100 100 78 46

GFSFLT2_prec_cloud_027.txt.gz
Cloud_Cover
100 100 100 100 64 9 16 5 7 71 45 5 5 6 57 86 83 56 76 98 92 100 100 100 100 100 100
100 100 100 100 98 52 88 70 77 96 24 5 5 5 5 7 74 88 100 95 78 55 91 91 99 98 100
100 100 100 100 98 100 93 100 100 100 19 5 5 5 5 5 20 55 25 5 43 39 77 96 97 95 100
100 100 100 100 100 93 100 92 75 41 29 80 6 5 5 5 5 5 5 5 5 5 83 100 99 100 100
100 100 100 100 100 95 100 80 83 100 32 85 5 5 2 4 3 5 5 5 5 21 100 100 100 100 100
100 100 92 86 89 96 100 100 97 47 17 60 5 5 2 0 0 5 5 5 8 33 97 97 100 100 100
100 100 98 99 90 96 87 100 99 61 65 35 5 5 5 0 2 5 5 5 5 5 5 28 98 100 100
75 77 85 72 98 100 85 76 42 10 20 88 5 5 5 4 5 5 5 5 5 5 7 97 95 99 100
54 82 17 45 19 10 64 90 82 47 5 82 5 38 6 5 1 1 5 5 5 5 9 42 98 100 100
5 5 5 2 4 5 59 99 99 87 5 93 66 62 76 13 5 5 5 5 5 5 5 39 100 100 100
5 1 2 5 5 5 46 87 99 98 14 100 78 93 100 91 82 5 5 5 5 5 5 68 95 99 100
3 5 5 5 5 48 37 62 78 86 6 98 97 95 100 97 94 5 5 5 13 36 18 56 49 10 82
5 5 16 34 49 82 83 90 81 80 68 75 97 92 100 100 99 73 97 84 6 44 97 92 83 82 77
23 42 69 95 97 95 97 94 85 38 5 5 5 82 100 99 100 100 94 98 72 6 81 97 99 90 99
97 97 91 84 83 83 96 96 99 92 18 5 20 97 96 100 100 98 90 83 15 67 98 94 75 86 82
99 100 96 100 100 88 96 97 93 96 95 26 62 94 91 53 81 77 68 100 100 100 100 100 100 100 89
100 100 100 100 100 98 98 99 99 99 97 99 100 100 100 100 100 100 100 100 100 100 92 100 100 100 100

GFSFLT2_prec_cloud_030.txt.gz
Cloud_Cover
100 100 100 100 100 100 100 99 54 100 100 73 58 88 6 5 5 32 39 16 70 87 100 100 100 100 100
100 100 100 100 93 100 100 100 100 100 75 59 16 32 5 5 29 10 19 6 76 100 86 84 86 94 100
100 100 100 92 77 94 100 100 100 100 100 100 87 100 93 24 55 5 79 5 5 51 96 100 100 97 99
100 94 100 96 86 87 99 100 100 100 100 96 73 94 100 48 55 8 8 5 5 5 10 25 65 64 92
100 100 100 91 100 100 100 100 100 100 100 100 35 32 5 10 5 5 4 5 5 5 5 68 99 100 100
99 97 100 77 92 100 100 100 100 94 78 61 41 100 28 5 0 4 5 5 5 5 20 40 36 83 83
91 100 100 100 100 100 100 100 95 80 100 100 100 39 5 1 1 5 5 5 5 5 5 37 95 100 100
100 100 100 100 100 100 97 92 91 72 96 84 5 5 5 1 0 5 5 5 5 5 7 84 98 100 100
100 76 100 79 20 81 14 99 84 62 61 83 5 75 6 3 0 4 5 5 5 6 80 100 94 97 100
95 100 92 27 5 5 69 92 100 99 77 32 9 76 86 19 7 5 5 5 5 22 32 68 94 100 100
91 5 3 5 5 13 57 88 100 100 12 100 87 91 100 95 84 34 5 5 5 5 5 75 99 99 100
0 4 5 62 87 96 86 85 95 78 16 100 100 98 100 100 91 12 5 5 5 34 63 72 91 100 98
5 15 72 87 91 92 90 100 100 96 82 80 100 100 100 100 96 82 84 75 6 22 45 69 79 99 100
74 54 48 72 86 98 96 96 99 72 65 47 99 99 100 100 100 100 100 99 59 5 100 96 91 100 100
94 92 85 87 93 93 97 100 100 99 90 73 90 100 100 100 100 93 99 92 93 81 95 100 100 90 100
95 100 99 100 99 98 100 100 100 100 100 84 100 100 92 75 70 70 90 100 100 100 100 100 100 98 89
100 100 100 100 100 100 100 100 100 96 89 96 100 100 100 100 65 99 100 100 100 100 100 100 100 100 100

GFSFLT2_prec_cloud_033.txt.gz
Cloud_Cover
100 100 100 100 100 100 100 100 100 100 100 100 81 95 86 100 100 100 100 100 100 65 74 99 100 100 100
100 100 100 100 100 100 100 100 100 100 100 100 91 98 92 69 93 100 100 100 99 100 100 100 100 100 100
100 100 100 100 100 100 100 100 100 97 100 97 21 19 95 93 95 100 100 100 100 100 97 27 71 97 86
100 100 100 100 100 100 100 100 100 87 95 16 5 5 5 5 18 24 88 61 26 94 27 22 72 39 25
100 100 100 100 100 85 98 99 87 67 69 13 7 27 24 23 16 5 32 12 5 5 6 30 87 97 100
100 100 100 100 100 99 88 99 100 96 82 81 8 9 29 95 68 18 5 5 37 29 45 100 100 100 100
100 91 96 98 100 100 54 39 49 76 17 100 70 52 5 4 4 5 5 18 27 17 72 75 100 100 100
92 74 94 92 97 100 99 100 97 94 79 14 5 5 0 0 2 4 5 5 5 5 5 19 100 100 100
100 78 96 100 100 100 100 99 52 5 5 5 3 5 5 0 0 0 3 5 5 5 5 6 72 100 100
100 100 100 100 99 86 18 5 82 87 24 5 6 34 67 3 0 0 0 2 5 5 5 6 90 99 100
94 63 19 4 5 5 5 51 83 100 48 100 36 77 94 94 5 5 5 4 4 5 5 5 8 80 100
0 0 4 5 6 96 95 79 81 94 94 100 98 94 100 97 96 7 5 5 29 7 46 56 62 24 95
4 5 5 5 5 5 82 100 100 97 63 13 93 93 100 100 100 96 99 66 40 8 12 78 33 74 87
5 5 5 5 5 21 97 100 100 100 64 5 40 99 100 100 100 98 94 100 50 76 62 82 14 32 100
91 92 93 96 98 96 100 100 100 100 100 93 88 100 100 100 100 91 100 100 100 95 98 100 82 100 90
100 100 100 100 100 100 100 100 100 100 100 82 98 100 90 72 78 87 92 100 97 100 100 100 98 95 83
100 100 100 100 100 100 100 100 100 100 100 100 100 100 100 100 31 97 24 19 99 97 58 87 99 94 88